#timestamp,LO_Frequency,Hit,StdDev 
1550872815.7,286046984.0,N
1550872835.6,286046983.8,N
1550872855.4,286046990.9,N
1550872875.2,286046988.7,N
1550872895.1,286046995.2,N
1550872896.0,286046995.2,N
1550872915.8,286046992.6,N
1550872935.7,286046992.2,N
1550872955.5,286046995.7,N
1550872975.3,286046994.6,N
1550872995.2,286046994.8,N
1550873015.0,286046995.2,N
1550873015.9,286046995.2,N
1550873035.7,286046994.2,N
1550873055.6,286046994.8,N
1550873075.4,286046992.5,N
1550873095.3,286046993.5,N
1550873115.1,286046995.1,N
1550873116.0,286046995.1,N
1550873135.8,286046995.2,N
1550873155.7,286046993.7,N
1550873205.5,286046995.7,E
1550873215.5,286046999.2,N
1550873235.3,286047002.5,P
1550873255.1,286047003.7,N
1550873275.9,286047005.7,N
1550873295.7,286047005.3,N
1550873315.6,286047004.9,N
1550873335.4,286047009.1,Y
1550873355.2,286047001.9,P
1550873375.1,286047001.6,N
1550873376.0,286047001.6,N
1550873395.8,286047004.3,Y
1550873415.7,286047001.1,P
1550873435.5,286047002.8,P
1550873455.3,286047002.7,P
1550873475.2,286047001.6,N
1550873495.0,286047002.1,Y
1550873495.9,286047002.1,P
1550873515.8,286046998.6,P
1550873535.6,286047002.8,N
1550873555.4,286047000.7,N
1550873575.3,286047001.2,N
1550873595.1,286046997.4,N
1550873615.8,286047000.7,N
1550873635.7,286047004.2,N
1550873655.5,286047001.4,N
1550873675.4,286047001.1,N
1550873695.2,286047001.1,N
1550873715.0,286046999.8,N
1550873715.9,286046999.8,N
1550873735.8,286047005.6,Y
1550873755.6,286047001.8,P
1550873775.5,286047005.0,P
1550873795.3,286047006.4,P
1550873815.1,286047008.1,Y
1550873835.9,286047008.8,P
1550873855.7,286047006.3,N
1550873875.6,286047010.3,P
1550873895.4,286047007.7,N
1550873915.2,286047010.3,Y
1550873935.1,286047003.7,P
1550873936.0,286047003.7,N
1550873955.8,286047004.0,N
1550873975.7,286047003.2,N
1550873995.5,286047001.4,N
1550874015.3,286047004.1,N
1550874035.2,286047003.2,N
1550874055.0,286047005.0,Y
1550874055.9,286047005.0,P
1550874075.7,286047000.0,N
1550874095.6,286047007.3,P
1550874115.4,286047017.0,Y
1550874135.3,286047006.5,P
1550874155.1,286047010.5,P
1550874175.8,286047015.1,P
1550874195.7,286047009.9,N
1550874215.5,286047012.2,Y
1550874235.4,286046997.7,P
1550874255.2,286046993.7,N
1550874275.0,286046994.1,N
1550874275.9,286046994.1,N
1550874295.8,286046991.2,N
1550874315.6,286046990.9,N
1550874335.5,286046992.0,N
1550874355.3,286046993.6,N
1550874375.1,286046995.8,N
1550874395.9,286046993.6,N
1550874415.7,286046997.9,N
1550874435.6,286047000.0,N
1550874455.4,286047005.6,N
1550874475.2,286047000.0,N
1550874525.1,286047009.3,E
1550874535.0,286047011.4,N
1550874535.9,286047011.4,P
1550874555.8,286047004.6,P
1550874575.6,286047004.6,N
1550874595.4,286047013.9,Y
1550874615.3,286047005.9,P
1550874635.1,286047008.8,P
1550874655.8,286047013.6,P
1550874675.7,286047012.5,Y
1550874695.5,286047010.8,P
1550874715.4,286047021.7,P
1550874735.2,286047028.1,P
1550874755.0,286047030.0,Y
1550874756.0,286047030.0,P
1550874775.8,286047020.2,P
1550874795.6,286047008.3,N
1550874815.5,286047020.0,N
1550874835.3,286047028.5,Y
1550874855.1,286047014.4,P
1550874875.9,286047014.5,P
1550874895.7,286047008.6,P
1550874915.6,286047011.8,Y
1550874935.4,286046999.9,P
1550874955.2,286047007.5,N
1550874975.1,286047005.5,N
1550874976.0,286047005.5,N
1550874995.8,286047002.9,N
1550875015.7,286046997.8,N
1550875035.5,286046986.1,N
1550875055.3,286046986.4,N
1550875075.2,286046992.9,N
1550875095.0,286046986.2,N
1550875095.9,286046986.2,N
1550875115.8,286046975.2,N
1550875135.6,286046974.9,N
1550875155.4,286046971.8,N
1550875175.3,286046987.6,N
1550875195.1,286046986.5,N
1550875215.8,286046985.1,N
1550875235.7,286046990.8,N
1550875255.5,286046991.5,N
1550875275.4,286046993.6,N
1550875295.2,286046996.3,N
1550875315.0,286046993.9,N
1550875315.9,286046993.9,N
1550875335.8,286046996.4,N
1550875355.6,286046996.7,N
1550875375.5,286047005.6,N
1550875395.3,286047002.9,N
1550875415.1,286047001.8,N
1550875435.9,286046996.9,N
1550875455.7,286046991.9,N
1550875475.5,286046998.7,N
1550875495.4,286046994.4,N
1550875515.2,286047000.8,N
1550875535.1,286046991.7,N
1550875536.0,286046991.7,N
1550875555.8,286046995.5,N
1550875575.6,286046993.4,N
1550875595.5,286046992.0,N
1550875615.3,286046992.5,N
1550875635.2,286047003.3,N
1550875655.9,286047008.0,N
1550875675.7,286047010.4,N
1550875695.6,286047005.5,N
1550875715.4,286046997.9,N
1550875735.2,286046989.7,N
1550875755.1,286046982.5,N
1550875756.0,286046982.5,N
1550875775.8,286046991.3,N
1550875795.7,286046997.6,N
1550875815.5,286046999.1,N
1550875835.3,286047010.5,N
1550875855.2,286047002.2,N
1550875875.0,286046994.9,N
1550875875.9,286046994.9,N
1550875895.8,286047000.8,N
1550875915.6,286046988.6,N
1550875935.4,286046988.9,N
1550875955.3,286047000.8,N
1550875975.1,286047000.0,N
1550875995.8,286046999.7,N
1550876015.7,286047002.2,N
1550876035.5,286047005.6,N
1550876055.4,286047004.6,N
1550876075.2,286047003.8,N
1550876095.0,286047006.9,N
1550876095.9,286047006.9,N
1550876115.8,286047009.5,N
1550876135.6,286047014.0,N
1550876155.5,286047009.4,N
1550876175.3,286047019.2,N
1550876195.1,286047021.4,N
1550876215.9,286047021.6,N
1550876235.7,286047012.8,N
1550876255.5,286047017.0,N
1550876275.4,286047016.4,N
1550876295.2,286047026.3,N
1550876315.1,286047025.9,N
1550876316.0,286047025.9,N
1550876335.8,286047025.8,N
1550876355.6,286047032.7,Y
1550876375.5,286047018.7,P
1550876395.3,286047012.0,N
